Weather History for 71706 - November, 2013

Change the Weather History Date:

Saturday, November 9, 2013

  Actual Average Record
Temperature  
Mean Temperature 34 °F -  
Max Temperature 37 °F 39 °F - ()
Min Temperature 32 °F 26 °F - ()
Degree Days  
Heating Degree Days 30    
Moisture  
Dew Point 27 °F    
Average Humidity 74    
Maximum Humidity 100    
Minimum Humidity 59    
Precipitation  
Precipitation 0.16 in 0.16 in - ()
Sea Level Pressure  
Sea Level Pressure 29.85 in    
Wind  
Wind Speed 11 mph ()    
Max Wind Speed 18 mph    
Max Gust Speed 28 mph    
Visibility 13.4 miles    
Events Snow    
T = Trace of Precipitation, MM = Missing Value Source: Averaged Metar Reports

Daily Weather History Graph

Daily Weather History Graph

Search for Another Location

Airport or City:

Trip Planner

Search our weather history database for the weather conditions in past years. The results will help you decide how hot, cold, wet, or windy it might be!

Date:

Astronomy

Nov. 09, 2013 Rise Set
Actual Time 7:05 AM AST 4:46 PM AST
Civil Twilight 6:33 AM AST 5:18 PM AST
Nautical Twilight 5:57 AM AST 5:54 PM AST
Astronomical Twilight 5:22 AM AST 6:29 PM AST
Moon 12:36 PM AST (11/9) 11:16 PM AST (11/9)
Length of Visible Light 10h 45m
Length of Day
9h 41m
Waxing Crescent, 43% of the Moon is Illuminated
Nov 9
Waxing Crescent
Nov 10
First Quarter
Nov 17
Full
Nov 25
Last Quarter
Dec 2
New

Hourly Weather History & Observations

Time (AST) Temp. Windchill Dew Point Humidity Pressure Visibility Wind Dir Wind Speed Gust Speed Precip Events Conditions
12:00 AM 37.4 °F 29.8 °F 26.6 °F 65% 29.65 in 15.0 mi West 11.5 mph 18.4 mph N/A   Overcast
1:00 AM 33.8 °F 27.0 °F 26.6 °F 75% 29.65 in 15.0 mi West 8.1 mph - N/A   Mostly Cloudy
2:00 AM 35 °F - 27 °F 62% 29.66 in 15 mi West 11.5 mph - -   Mostly Cloudy
2:00 AM 35.6 °F 28.0 °F 26.6 °F 70% 29.66 in 15.0 mi West 10.4 mph 19.6 mph N/A   Mostly Cloudy
3:00 AM 33.8 °F 25.8 °F 26.6 °F 75% 29.67 in 15.0 mi West 10.4 mph - N/A   Partly Cloudy
4:00 AM 33.8 °F 24.8 °F 26.6 °F 75% 29.67 in 15.0 mi West 12.7 mph 18.4 mph N/A   Partly Cloudy
5:00 AM 33.8 °F 24.8 °F 26.6 °F 75% 29.69 in 15.0 mi West 12.7 mph 20.7 mph N/A   Partly Cloudy
6:00 AM 33.8 °F 24.8 °F 26.6 °F 75% 29.70 in 15.0 mi West 12.7 mph 19.6 mph N/A   Partly Cloudy
7:00 AM 33.8 °F 25.8 °F 26.6 °F 75% 29.73 in 15.0 mi West 10.4 mph - N/A   Mostly Cloudy
8:00 AM 34 °F - 26 °F 62% 29.75 in 15 mi West 11.5 mph - -   Mostly Cloudy
8:00 AM 33.8 °F 25.3 °F 26.6 °F 75% 29.75 in 15.0 mi West 11.5 mph 20.7 mph N/A   Mostly Cloudy
8:44 AM 35.6 °F 27.1 °F 26.6 °F 70% 29.76 in 15.0 mi West 12.7 mph 20.7 mph N/A Snow Light Snow Showers
9:00 AM 35.6 °F 26.2 °F 26.6 °F 70% 29.77 in 15.0 mi WNW 15.0 mph 24.2 mph N/A Snow Light Snow Showers
9:18 AM 35.6 °F 26.2 °F 24.8 °F 65% 29.78 in 15.0 mi WNW 15.0 mph 25.3 mph N/A   Mostly Cloudy
10:00 AM 33.8 °F 23.9 °F 23.0 °F 65% 29.79 in 15.0 mi West 15.0 mph 21.9 mph N/A   Mostly Cloudy
11:00 AM 35.6 °F 25.5 °F 23.0 °F 60% 29.81 in 15.0 mi West 17.3 mph 25.3 mph N/A   Mostly Cloudy
12:00 PM 35.6 °F 25.9 °F 23.0 °F 60% 29.81 in 15.0 mi West 16.1 mph 25.3 mph N/A   Mostly Cloudy
12:35 PM 35.6 °F 26.2 °F 23.0 °F 60% 29.81 in 15.0 mi WNW 15.0 mph 23.0 mph N/A Snow Light Snow Showers
1:00 PM 37.4 °F 28.9 °F 26.6 °F 65% 29.82 in 15.0 mi West 13.8 mph 26.5 mph N/A Snow Light Snow Showers
1:12 PM 35.6 °F 25.2 °F 24.8 °F 65% 29.82 in 15.0 mi WNW 18.4 mph 27.6 mph N/A Snow Light Snow Showers
2:00 PM 35 °F - 27 °F 63% 29.84 in 10 mi WNW 13.8 mph - - Snow Light Snow Showers
2:00 PM 35.6 °F 26.2 °F 26.6 °F 70% 29.84 in 10.0 mi WNW 15.0 mph 23.0 mph N/A Snow Light Snow Showers
3:00 PM 35.6 °F 26.6 °F 26.6 °F 70% 29.86 in 15.0 mi WNW 13.8 mph 19.6 mph N/A Snow Light Snow Showers
4:00 PM 35.6 °F 26.2 °F 24.8 °F 65% 29.88 in 15.0 mi West 15.0 mph 23.0 mph N/A Snow Light Snow Showers
5:00 PM 35.6 °F 27.5 °F 24.8 °F 65% 29.91 in 15.0 mi West 11.5 mph 18.4 mph N/A   Mostly Cloudy
6:00 PM 35.6 °F 28.0 °F 26.6 °F 70% 29.93 in 15.0 mi West 10.4 mph 19.6 mph N/A   Mostly Cloudy
6:36 PM 35.6 °F 28.0 °F 26.6 °F 70% 29.95 in 15.0 mi WNW 10.4 mph 17.3 mph N/A Snow Light Snow Showers
7:00 PM 37.4 °F 30.3 °F 26.6 °F 65% 29.96 in 15.0 mi WNW 10.4 mph 18.4 mph N/A Snow Light Snow Showers
8:00 PM 36 °F - 27 °F 59% 29.97 in 15 mi WNW 10.4 mph - - Snow Light Snow Showers
8:00 PM 35.6 °F 29.2 °F 26.6 °F 70% 29.97 in 15.0 mi NW 8.1 mph - N/A Snow Light Snow Showers
8:19 PM 33.8 °F 25.8 °F 30.2 °F 87% 29.98 in 4.0 mi NW 10.4 mph 24.2 mph N/A Snow Light Snow Showers
8:39 PM 32.0 °F 24.8 °F 32.0 °F 100% 29.99 in 10.0 mi WNW 8.1 mph - N/A Snow Light Snow Showers
9:00 PM 32.0 °F 23.0 °F 32.0 °F 100% 29.99 in 15.0 mi West 11.5 mph - N/A Snow Light Snow Showers
9:29 PM 33.8 °F 27.0 °F 32.0 °F 93% 29.99 in 15.0 mi West 8.1 mph - N/A   Overcast
10:00 PM 32.0 °F 24.2 °F 32.0 °F 100% 30.01 in 15.0 mi WSW 9.2 mph - N/A   Mostly Cloudy
10:19 PM 33.8 °F 27.0 °F 32.0 °F 93% 30.02 in 7.0 mi West 8.1 mph - N/A Snow Light Snow Showers
11:00 PM 32.0 °F 27.5 °F 32.0 °F 100% 30.04 in 5.0 mi West 4.6 mph - N/A Snow Light Snow Showers
11:07 PM 32.0 °F 26.4 °F 32.0 °F 100% 30.04 in 2.0 mi WSW 5.8 mph - N/A Snow Light Snow Showers
11:43 PM 32.0 °F 28.7 °F 32.0 °F 100% 30.04 in 10.0 mi West 3.5 mph - N/A Snow Light Snow Showers